Volver al catálogo

KINEIS-1D

ActivoComunicacionesSSO
NORAD 60082·PAYLOAD·🇫🇷 France

Lanzado Jun 20, 2024 desde Rocket Lab Launch Complex 1

Loading…

Próximos Pases (próximas 24 horas)

TLE

ActualizadoSource: Space-Track

Época: Sep 14, 2026, 12:08 UTC

1 60082U 24114D   26257.50616565  .00000399  00000-0  64741-4 0  9991
2 60082  97.9874 276.6730 0000132 143.4573 216.6645 14.76421704120308

Sigue KINEIS-1D en tiempo real con AllMySat

Download on the App Store